Temp
-8 -8 -8 -7 -7 -7 -7 -6 -6 -6 -6 -6 -6 -6 -5 -5 -5 -5 -5 -5 -5 -5 -5 -6 -6 -5 -5 -5 -5 -5 -5 -5 -5 -6 -6 -5 -5 -5 -5 -5 -6 -6 -6
-8 -8 -8 -8 -7 -7 -7 -7 -6 -6 -6 -6 -6 -6 -6 -5 -5 -5 -5 -5 -5 -5 -6 -5 -5 -5 -5 -5 -5 -5 -5 -5 -5 -5 -5 -5 -5 -5 -5 -5 -6 -6 -6
-8 -8 -8 -8 -8 -7 -7 -7 -7 -6 -6 -6 -6 -6 -5 -6 -6 -6 -6 -5 -5 -5 -5 -5 -5 -5 -5 -5 -5 -5 -5 -5 -5 -5 -5 -5 -5 -5 -6 -6 -6 -6 -6
-9 -8 -8 -8 -8 -7 -7 -7 -7 -6 -6 -6 -6 -6 -6 -6 -6 -6 -6 -5 -6 -6 -6 -5 -5 -5 -5 -5 -5 -5 -5 -5 -5 -5 -5 -6 -6 -6 -6 -6 -6 -6 -7
-9 -9 -8 -8 -8 -8 -7 -7 -7 -6 -6 -6 -6 -6 -6 -6 -6 -6 -6 -6 -6 -6 -6 -5 -5 -5 -5 -5 -5 -6 -5 -5 -6 -6 -6 -6 -6 -6 -6 -6 -6 -7 -7
-9 -9 -9 -8 -8 -8 -8 -7 -7 -7 -7 -6 -7 -6 -6 -6 -6 -6 -6 -6 -6 -6 -6 -5 -6 -6 -6 -6 -6 -6 -6 -6 -6 -6 -6 -6 -6 -6 -6 -6 -7 -7 -7
-9 -9 -9 -9 -8 -8 -8 -8 -7 -7 -7 -7 -7 -7 -7 -6 -6 -6 -6 -6 -6 -6 -6 -6 -6 -6 -6 -6 -6 -6 -6 -6 -6 -6 -6 -6 -6 -6 -7 -7 -7 -7 -7
-10 -9 -9 -9 -8 -8 -8 -8 -7 -8 -8 -7 -7 -7 -7 -7 -6 -6 -6 -6 -6 -6 -6 -6 -6 -6 -6 -6 -6 -6 -6 -6 -6 -6 -6 -6 -7 -7 -7 -7 -7 -8 -8
-10 -10 -10 -9 -9 -8 -8 -8 -8 -8 -8 -8 -7 -7 -7 -7 -7 -7 -7 -6 -6 -6 -6 -6 -6 -6 -6 -6 -6 -6 -6 -7 -7 -7 -7 -7 -7 -7 -7 -7 -8 -8 -8
-10 -10 -9 -10 -9 -9 -9 -8 -8 -8 -8 -8 -8 -7 -7 -7 -7 -7 -7 -6 -6 -6 -6 -6 -6 -6 -6 -6 -7 -7 -7 -7 -7 -7 -7 -7 -7 -7 -8 -8 -8 -8 -9
-11 -10 -10 -10 -10 -9 -9 -9 -9 -8 -8 -8 -8 -7 -7 -7 -7 -7 -7 -7 -7 -7 -7 -7 -7 -6 -6 -7 -7 -7 -7 -7 -7 -7 -7 -8 -8 -8 -8 -8 -8 -9 -9
-11 -11 -10 -10 -10 -10 -10 -9 -9 -9 -9 -8 -8 -8 -8 -8 -8 -7 -7 -7 -7 -7 -7 -7 -7 -7 -7 -7 -7 -7 -7 -7 -7 -7 -7 -8 -8 -8 -9 -9 -9 -9 -9
-12 -11 -11 -11 -11 -11 -10 -10 -9 -9 -9 -9 -9 -8 -8 -8 -8 -8 -7 -7 -7 -7 -7 -7 -7 -7 -7 -7 -7 -7 -7 -7 -8 -8 -8 -8 -8 -9 -9 -9 -9 -10 -10
-12 -12 -11 -10 -10 -11 -11 -10 -10 -10 -9 -9 -9 -9 -8 -8 -8 -8 -8 -8 -8 -8 -8 -8 -8 -8 -8 -8 -8 -8 -8 -8 -8 -8 -8 -9 -9 -9 -9 -9 -9 -10 -10
-12 -12 -13 -11 -11 -11 -11 -10 -10 -10 -10 -9 -9 -9 -9 -9 -9 -9 -9 -8 -8 -8 -8 -8 -8 -8 -8 -8 -8 -8 -8 -8 -8 -9 -9 -9 -9 -10 -10 -10 -10 -10 -10
-13 -13 -12 -12 -11 -11 -11 -11 -10 -10 -10 -10 -10 -9 -9 -9 -9 -9 -9 -9 -9 -8 -8 -8 -8 -8 -8 -9 -8 -8 -8 -9 -9 -9 -9 -9 -10 -10 -10 -10 -10 -10 -10
-13 -13 -13 -13 -12 -12 -11 -11 -11 -10 -10 -10 -10 -10 -10 -10 -9 -9 -9 -9 -9 -9 -9 -9 -8 -9 -9 -9 -9 -9 -9 -9 -9 -10 -10 -10 -10 -10 -10 -10 -10 -11 -11
-13 -13 -13 -13 -13 -12 -12 -12 -11 -11 -10 -10 -10 -10 -10 -10 -10 -10 -9 -9 -9 -9 -9 -9 -9 -9 -9 -9 -9 -9 -10 -10 -10 -10 -10 -10 -10 -10 -11 -11 -11 -11 -11
-12 -13 -13 -12 -13 -13 -12 -12 -12 -11 -11 -11 -10 -11 -10 -10 -10 -10 -10 -9 -10 -10 -9 -9 -9 -10 -10 -9 -10 -10 -10 -10 -10 -10 -10 -10 -10 -11 -11 -11 -11 -11 -11
-13 -12 -14 -13 -13 -13 -12 -12 -12 -12 -12 -11 -11 -11 -11 -11 -11 -11 -10 -10 -10 -10 -10 -10 -10 -10 -10 -10 -10 -10 -11 -11 -11 -11 -11 -11 -11 -11 -11 -11 -11 -11 -11
-13 -13 -13 -13 -13 -13 -13 -12 -12 -12 -12 -13 -12 -11 -11 -11 -11 -10 -10 -10 -11 -10 -11 -11 -11 -11 -11 -11 -11 -11 -11 -11 -11 -11 -11 -11 -11 -12 -12 -11 -11 -12 -12
-14 -14 -13 -13 -13 -13 -13 -13 -13 -12 -12 -12 -11 -11 -11 -10 -10 -10 -10 -10 -11 -11 -12 -11 -11 -11 -11 -11 -11 -11 -11 -11 -11 -11 -12 -12 -12 -12 -12 -12 -12 -12 -12
-14 -14 -14 -13 -13 -12 -12 -13 -13 -12 -12 -11 -11 -11 -11 -11 -11 -10 -11 -11 -11 -12 -12 -12 -12 -11 -12 -11 -11 -11 -11 -12 -12 -12 -12 -12 -12 -12 -12 -12 -12 -12 -12
-14 -14 -14 -14 -13 -12 -13 -12 -12 -13 -13 -12 -11 -11 -11 -11 -12 -12 -11 -11 -11 -11 -11 -12 -12 -12 -12 -12 -12 -12 -12 -12 -12 -12 -12 -12 -12 -13 -13 -13 -13 -13 -13
-15 -15 -14 -14 -14 -13 -13 -12 -12 -12 -12 -12 -12 -12 -11 -11 -11 -11 -11 -11 -11 -11 -11 -12 -12 -13 -12 -12 -12 -12 -12 -12 -12 -12 -13 -13 -13 -13 -13 -13 -13 -13 -13
-15 -15 -14 -14 -14 -13 -13 -13 -12 -12 -12 -12 -12 -11 -11 -11 -12 -12 -12 -11 -11 -11 -12 -12 -13 -13 -13 -13 -14 -12 -13 -13 -13 -13 -14 -14 -13 -13 -13 -13 -13 -14 -14
Height
5876 5878 5879 5880 5881 5882 5883 5884 5885 5886 5887 5887 5888 5889 5890 5891 5891 5892 5892 5892 5892 5892 5892 5891 5890 5890 5889 5888 5887 5887 5886 5886 5885 5883 5882 5881 5880 5879 5878 5876 5875 5873 5871
5874 5875 5877 5878 5880 5881 5882 5882 5884 5885 5886 5886 5887 5889 5890 5890 5892 5892 5892 5892 5892 5892 5891 5891 5890 5889 5888 5888 5887 5887 5886 5885 5884 5883 5882 5881 5879 5878 5877 5876 5874 5872 5870
5871 5873 5875 5876 5878 5880 5881 5881 5883 5884 5885 5886 5887 5888 5889 5890 5891 5892 5891 5892 5891 5891 5890 5890 5889 5889 5888 5887 5887 5886 5885 5885 5884 5883 5882 5881 5880 5879 5877 5875 5874 5871 5870
5868 5870 5872 5875 5876 5878 5879 5880 5881 5883 5884 5885 5886 5887 5888 5889 5890 5891 5890 5891 5890 5890 5889 5889 5889 5888 5887 5887 5886 5886 5885 5884 5883 5883 5881 5881 5880 5879 5876 5875 5873 5871 5869
5865 5868 5870 5872 5875 5876 5878 5879 5880 5882 5883 5884 5885 5886 5887 5888 5889 5889 5890 5890 5889 5889 5889 5888 5888 5888 5887 5886 5886 5885 5884 5883 5883 5881 5881 5880 5879 5877 5876 5874 5872 5870 5868
5862 5865 5867 5869 5872 5874 5876 5877 5879 5880 5882 5883 5884 5885 5886 5888 5888 5889 5889 5889 5888 5888 5888 5887 5887 5887 5886 5886 5885 5885 5884 5883 5882 5881 5880 5879 5878 5876 5875 5873 5872 5870 5868
5859 5862 5865 5867 5869 5871 5874 5875 5877 5878 5880 5882 5883 5885 5885 5887 5887 5887 5888 5888 5888 5888 5887 5887 5887 5886 5886 5886 5885 5884 5883 5882 5881 5880 5879 5878 5877 5875 5874 5872 5871 5869 5866
5855 5859 5862 5865 5867 5869 5871 5874 5875 5876 5878 5881 5882 5883 5884 5885 5885 5886 5887 5887 5887 5887 5887 5887 5887 5886 5886 5885 5884 5883 5882 5881 5880 5879 5879 5877 5876 5874 5873 5871 5870 5867 5865
5851 5855 5859 5862 5864 5866 5868 5871 5873 5875 5876 5879 5881 5881 5882 5883 5884 5885 5886 5886 5886 5886 5886 5886 5886 5885 5885 5884 5883 5882 5881 5880 5879 5878 5877 5876 5875 5873 5871 5869 5867 5866 5863
5847 5851 5856 5859 5860 5863 5865 5868 5870 5872 5874 5876 5878 5880 5881 5882 5883 5884 5884 5884 5885 5886 5886 5885 5885 5884 5884 5883 5883 5882 5881 5879 5878 5877 5876 5874 5873 5871 5870 5867 5865 5863 5860
5843 5847 5852 5856 5858 5860 5862 5865 5867 5869 5872 5874 5875 5877 5879 5880 5881 5882 5883 5883 5883 5884 5885 5884 5884 5884 5883 5882 5881 5880 5879 5878 5877 5876 5874 5873 5871 5869 5868 5865 5864 5861 5858
5838 5842 5848 5852 5854 5856 5859 5862 5864 5866 5869 5871 5873 5875 5877 5878 5880 5880 5881 5881 5881 5882 5883 5883 5883 5882 5881 5881 5880 5879 5878 5876 5875 5874 5872 5870 5869 5867 5865 5862 5860 5858 5855
5834 5838 5843 5847 5851 5853 5856 5858 5860 5863 5866 5868 5871 5873 5875 5876 5877 5878 5879 5879 5880 5880 5880 5880 5880 5879 5879 5878 5877 5877 5876 5874 5873 5871 5870 5868 5866 5864 5861 5859 5857 5854 5851
5830 5835 5838 5842 5846 5849 5852 5854 5857 5860 5863 5865 5867 5869 5871 5872 5873 5875 5876 5877 5877 5877 5878 5877 5877 5876 5876 5875 5875 5874 5873 5872 5870 5869 5867 5865 5863 5860 5857 5855 5853 5850 5847
5826 5830 5834 5838 5842 5845 5849 5851 5853 5856 5859 5862 5864 5866 5868 5869 5870 5871 5873 5873 5874 5874 5874 5875 5874 5873 5873 5872 5871 5870 5869 5868 5867 5865 5864 5862 5859 5857 5854 5851 5849 5846 5843
5820 5825 5829 5834 5838 5842 5845 5847 5850 5852 5854 5858 5861 5863 5864 5866 5867 5868 5869 5870 5871 5871 5871 5871 5871 5871 5870 5869 5868 5867 5866 5865 5863 5862 5860 5858 5855 5853 5850 5847 5845 5841 5838
5815 5819 5824 5829 5832 5836 5840 5843 5846 5848 5851 5854 5856 5859 5861 5862 5863 5864 5865 5866 5867 5867 5867 5867 5867 5867 5867 5866 5865 5864 5862 5861 5860 5858 5856 5854 5852 5848 5845 5842 5840 5837 5834
5808 5814 5819 5823 5826 5830 5834 5838 5841 5844 5847 5850 5852 5854 5855 5857 5858 5859 5859 5860 5861 5862 5862 5863 5863 5863 5863 5862 5861 5860 5858 5857 5855 5853 5851 5849 5846 5843 5841 5837 5835 5832 5828
5801 5807 5812 5817 5821 5825 5828 5831 5834 5836 5840 5844 5846 5849 5850 5851 5852 5853 5854 5855 5856 5856 5857 5857 5858 5858 5857 5857 5856 5855 5854 5852 5850 5848 5845 5843 5840 5837 5834 5833 5829 5825 5822
5794 5801 5804 5810 5814 5818 5822 5824 5828 5830 5833 5838 5842 5843 5844 5845 5845 5847 5848 5850 5851 5851 5852 5852 5852 5852 5852 5852 5852 5850 5849 5847 5846 5843 5840 5838 5835 5832 5828 5825 5823 5818 5815
5786 5791 5798 5801 5806 5812 5815 5818 5821 5824 5826 5829 5832 5834 5835 5838 5840 5842 5842 5843 5845 5846 5847 5847 5846 5846 5846 5846 5846 5845 5844 5842 5840 5838 5834 5831 5829 5826 5821 5819 5816 5813 5810
5778 5784 5788 5793 5796 5803 5808 5811 5814 5817 5818 5821 5824 5827 5829 5831 5832 5833 5835 5837 5839 5840 5840 5840 5840 5840 5840 5840 5839 5839 5838 5837 5835 5832 5827 5825 5821 5818 5815 5812 5809 5806 5803
5769 5776 5780 5783 5789 5794 5798 5802 5806 5809 5811 5814 5816 5817 5820 5823 5825 5826 5828 5830 5830 5832 5832 5833 5833 5833 5833 5833 5833 5832 5831 5830 5827 5825 5822 5819 5815 5811 5807 5805 5802 5799 5796
5760 5766 5771 5775 5780 5787 5789 5795 5800 5802 5803 5805 5809 5811 5810 5815 5817 5819 5819 5820 5821 5823 5823 5824 5825 5826 5826 5826 5827 5824 5824 5822 5820 5819 5816 5813 5808 5804 5801 5798 5795 5793 5789
5750 5756 5762 5768 5773 5778 5782 5787 5791 5793 5795 5797 5799 5801 5803 5807 5809 5809 5811 5812 5813 5813 5815 5816 5817 5818 5819 5818 5818 5819 5816 5814 5812 5810 5808 5804 5802 5797 5793 5790 5787 5784 5782
5741 5748 5752 5759 5763 5769 5772 5776 5779 5779 5784 5787 5789 5790 5794 5798 5800 5801 5804 5805 5806 5806 5806 5807 5808 5810 5810 5810 5809 5808 5808 5806 5804 5801 5799 5796 5792 5789 5785 5782 5778 5776 5774
Wind_Speed
16 14 16 16 16 15 14 13 12 9 8 5 4 4 4 4 3 2 1 1 2 3 5 6 7 6 7 7 8 9 9 10 11 12 13 14 14 14 15 15 16 17 17
18 17 16 16 15 15 14 13 12 10 9 7 6 6 6 5 4 2 1 2 3 4 5 6 5 6 5 7 8 9 9 10 10 12 13 14 14 15 15 16 17 18 18
21 21 18 16 16 15 14 13 11 11 10 9 8 7 7 6 4 3 2 3 4 4 5 5 6 6 7 8 9 9 10 11 11 13 13 14 15 15 16 17 17 18 19
23 22 19 18 17 16 14 13 12 12 11 10 10 8 7 6 4 4 3 4 4 4 4 5 5 6 7 8 9 9 10 11 12 12 13 14 15 15 16 17 18 19 20
25 23 21 19 18 17 15 13 13 11 10 10 9 8 8 6 5 4 4 4 4 4 5 5 6 6 7 8 9 10 11 12 12 13 13 14 14 16 17 18 18 19 20
29 25 22 20 19 17 16 13 13 10 9 9 9 9 8 6 6 4 5 5 4 5 5 5 6 6 7 8 9 10 11 12 12 13 13 14 15 16 17 18 19 19 20
31 29 26 23 20 17 16 16 13 12 10 10 10 9 8 8 5 4 5 5 5 5 5 5 5 6 7 8 9 10 11 12 13 14 14 15 16 17 18 19 20 22 23
32 30 29 26 23 19 17 17 16 14 13 12 12 10 9 7 5 6 6 5 5 5 4 4 5 6 7 8 9 11 12 13 14 15 16 17 17 18 19 20 22 23 23
33 31 29 25 24 21 18 18 18 17 15 14 13 11 10 7 7 7 6 5 5 5 4 4 5 5 7 9 11 12 13 14 15 16 17 18 19 20 20 22 23 23 23
36 34 30 27 26 24 21 20 20 19 18 17 16 13 11 9 9 8 7 6 6 6 5 5 5 6 8 9 11 13 14 16 16 18 19 20 20 21 22 23 24 25 25
38 35 31 28 29 27 24 22 22 21 20 19 18 15 13 12 10 9 8 7 6 7 6 6 6 8 9 11 12 13 15 17 17 19 21 22 23 23 23 24 26 26 25
38 36 32 29 29 30 27 24 24 24 23 21 20 17 15 13 12 10 10 8 8 8 8 8 8 10 11 12 14 15 17 18 18 19 22 23 23 24 25 26 27 27 27
40 37 34 30 29 31 28 26 26 26 24 22 20 18 17 15 14 12 11 9 10 10 10 10 11 12 13 14 16 17 19 20 20 21 23 25 26 25 26 28 30 29 29
41 39 37 32 30 31 30 29 28 27 26 23 21 19 18 16 15 14 13 12 12 12 13 13 13 15 15 16 17 19 20 22 21 23 24 25 27 28 29 29 31 30 29
42 42 41 35 32 32 33 32 31 30 29 26 24 23 20 19 17 16 16 15 15 14 15 15 15 17 18 19 19 20 22 24 24 25 25 27 29 30 31 31 31 31 32
45 44 43 39 35 32 34 36 34 34 32 29 26 25 22 22 21 20 19 18 18 18 17 17 17 18 19 20 21 22 24 26 26 27 27 29 32 32 33 33 32 32 32
47 45 43 42 40 38 36 37 38 37 35 32 29 27 26 25 23 23 22 21 21 21 21 20 20 21 21 21 22 23 25 26 27 28 29 32 34 35 35 35 34 32 32
47 47 46 44 43 42 40 38 39 40 38 36 33 30 30 27 26 26 25 24 24 24 23 23 23 23 23 23 23 24 27 27 28 30 31 34 37 38 37 37 34 33 33
53 48 47 47 46 44 42 42 41 43 42 40 39 34 33 32 30 31 30 28 27 26 26 25 24 25 25 25 25 26 28 28 29 32 33 36 38 41 40 37 36 33 33
53 52 51 48 48 45 43 43 43 46 45 43 42 39 38 38 35 35 33 31 30 29 28 25 26 26 26 26 26 28 29 30 32 33 34 38 39 43 42 40 36 35 34
53 54 54 53 50 46 44 44 43 44 49 44 44 45 45 43 41 39 37 35 33 30 28 28 28 27 26 25 27 29 31 33 32 34 36 39 41 45 42 39 35 34 34
55 53 54 55 55 53 49 43 44 44 44 48 48 51 50 48 46 43 42 37 34 31 30 30 30 28 28 29 31 33 33 35 34 35 38 39 45 45 40 38 35 37 36
56 56 53 52 49 56 54 50 47 44 46 48 51 56 55 51 47 48 46 40 37 34 32 31 32 32 32 33 34 35 37 36 36 37 36 40 43 43 41 38 37 39 38
61 58 57 55 48 40 52 55 50 51 49 43 43 49 58 55 57 54 52 47 43 41 37 34 33 35 35 35 33 38 39 39 39 38 38 43 43 41 39 36 38 40 39
58 58 59 55 52 47 51 51 54 56 50 49 47 53 54 51 54 58 48 37 41 40 38 36 35 36 37 36 38 38 39 41 40 40 42 47 45 41 39 38 39 42 38
63 55 59 58 53 55 53 47 51 43 53 54 57 53 58 56 57 55 54 50 41 41 36 37 37 37 37 38 39 41 39 40 42 46 49 51 43 42 40 40 41 39 36
Wind_Direction
218 219 222 225 230 229 226 224 228 229 230 223 244 245 241 243 267 239 255 5 2 341 332 336 345 359 356 357 350 344 342 339 340 345 348 355 358 0 356 351 350 348 347
224 218 219 219 224 229 228 226 227 229 236 239 242 245 243 237 245 232 271 317 333 321 326 335 348 346 352 347 348 344 342 343 347 351 352 354 355 354 353 351 350 350 348
221 218 220 222 221 226 228 228 230 229 231 235 239 238 237 233 220 243 278 299 301 314 330 334 347 341 345 344 346 342 346 351 355 355 354 353 352 348 348 348 348 348 346
220 220 223 225 223 223 227 229 230 232 232 232 233 234 220 218 232 247 286 295 310 320 334 338 342 342 344 346 348 349 354 358 358 358 358 353 349 344 346 347 347 347 346
223 225 225 223 226 226 229 231 229 234 235 230 228 220 217 222 234 258 278 290 308 324 334 338 344 345 349 349 350 357 359 359 356 358 355 353 345 345 346 345 345 348 346
227 226 224 223 227 231 231 234 231 231 232 221 214 215 221 231 243 268 285 296 310 323 325 341 340 345 353 352 358 0 359 359 355 352 351 345 341 341 342 341 343 344 345
232 229 229 228 230 231 235 231 229 223 222 213 218 219 223 236 254 275 284 293 311 312 323 328 336 347 351 355 1 358 358 353 350 345 345 339 339 341 341 341 342 341 342
233 232 232 235 234 234 235 235 230 221 216 217 219 223 228 237 255 264 276 290 295 306 312 324 333 351 349 355 353 352 350 348 344 343 341 341 341 341 341 343 340 340 341
234 233 231 234 234 233 233 233 232 225 217 217 223 225 231 239 250 263 270 279 294 300 303 320 327 343 345 350 346 346 345 341 342 343 343 342 341 340 338 339 338 338 337
234 235 232 231 236 234 232 231 229 227 222 219 222 227 233 241 248 263 267 272 285 294 300 314 320 335 337 342 339 340 340 340 340 341 342 339 338 339 338 337 337 336 335
232 236 234 233 237 236 233 230 227 227 226 227 225 225 231 237 244 256 266 273 281 290 296 301 312 323 329 331 331 333 335 336 337 337 339 338 338 337 336 336 335 333 332
235 236 235 233 233 237 233 230 229 225 226 228 231 228 231 235 244 249 257 269 277 285 292 300 308 315 319 322 324 328 331 331 332 332 335 336 335 334 334 334 333 330 329
235 238 237 231 229 234 232 230 229 228 227 231 233 235 235 238 244 252 262 274 283 289 292 299 306 310 315 318 318 321 326 325 325 327 330 333 331 329 330 330 330 327 328
233 237 239 233 227 230 233 230 229 229 229 231 236 239 241 243 250 257 265 272 280 287 292 296 300 303 307 309 312 315 318 319 318 321 325 327 327 325 325 326 325 324 324
230 235 238 238 233 229 234 235 231 230 231 231 236 238 242 247 251 256 263 269 274 278 282 285 289 294 298 303 306 309 313 314 313 317 321 324 325 322 321 322 322 321 322
224 231 236 240 240 238 238 235 235 232 231 231 235 241 242 246 250 253 257 262 267 271 273 277 281 286 290 295 299 303 307 309 310 313 317 320 321 320 320 319 319 319 318
222 225 231 238 241 242 244 244 238 238 235 232 234 239 244 247 248 252 256 260 263 267 271 275 277 281 285 289 294 299 303 305 306 308 312 317 320 320 319 319 318 316 314
224 227 228 232 239 242 243 244 246 243 241 239 238 238 241 245 250 251 251 253 258 263 268 272 277 282 284 288 292 296 299 302 302 306 310 315 319 320 318 318 315 313 314
233 225 231 232 234 240 243 244 244 247 245 242 242 239 242 243 245 249 251 253 256 261 266 271 277 280 283 287 292 296 298 300 300 304 307 313 318 318 318 316 313 313 314
234 239 225 231 235 238 241 244 246 247 249 247 246 244 244 246 247 249 251 255 258 262 267 272 275 279 284 287 293 296 296 296 300 302 306 311 314 316 315 314 312 312 311
232 237 241 229 232 237 240 244 247 253 245 244 246 245 245 246 249 252 253 255 260 264 269 271 275 279 285 288 294 294 295 295 298 301 303 308 311 314 311 311 309 310 309
235 235 239 240 238 233 238 242 249 255 258 252 248 244 248 248 249 253 256 258 262 266 268 272 275 278 282 289 292 293 293 293 295 299 303 309 310 310 308 308 310 311 311
235 235 238 242 240 242 237 240 245 252 258 256 260 257 246 246 252 256 257 258 259 261 264 269 273 278 284 289 288 293 292 293 294 297 303 310 308 306 306 306 308 311 306
232 233 236 242 244 245 240 243 244 251 256 257 260 262 259 251 249 250 252 253 255 256 259 263 270 276 283 287 291 292 293 294 295 296 300 305 305 303 302 302 307 307 301
237 237 238 239 244 244 251 235 250 250 251 258 264 260 261 253 257 253 252 257 254 254 260 267 273 280 284 285 287 288 291 293 293 295 301 304 302 300 300 299 303 301 299
234 235 236 236 235 243 249 250 249 241 254 254 256 269 259 254 254 251 251 253 254 259 266 273 277 277 281 282 288 289 290 290 291 296 299 300 298 298 299 298 298 298 294